Time,TemperatureF,DewpointF,PressureIn,WindDirection,WindDirectionDegrees,WindSpeedMPH,WindSpeedGustMPH,Humidity,HourlyPrecipIn,Conditions,Clouds,dailyrainin,SoftwareType,DateUTC
2013-05-10 00:12:00,49.6,49.0,29.91,NE,50,0.0,1.0,96,0.00,,,0.06,weatherlink.com 1.10,2013-05-10 04:12:00,
2013-05-10 00:27:00,49.3,48.0,29.91,NE,50,0.0,1.0,96,0.00,,,0.06,weatherlink.com 1.10,2013-05-10 04:27:00,
2013-05-10 00:42:00,49.1,48.0,29.91,NE,50,0.0,0.0,96,0.00,,,0.00,weatherlink.com 1.10,2013-05-10 04:42:00,
2013-05-10 00:57:00,49.0,48.0,29.91,NE,50,0.0,0.0,96,0.00,,,0.00,weatherlink.com 1.10,2013-05-10 04:57:00,
2013-05-10 01:12:00,48.7,48.0,29.91,NE,50,0.0,0.0,96,0.00,,,0.00,weatherlink.com 1.10,2013-05-10 05:12:00,
2013-05-10 01:27:00,48.4,47.0,29.91,NE,50,0.0,0.0,96,0.00,,,0.00,weatherlink.com 1.10,2013-05-10 05:27:00,
2013-05-10 01:42:00,48.3,47.0,29.91,NE,50,0.0,0.0,96,0.00,,,0.00,weatherlink.com 1.10,2013-05-10 05:42:00,
2013-05-10 01:57:00,48.1,47.0,29.91,NE,50,0.0,0.0,96,0.00,,,0.00,weatherlink.com 1.10,2013-05-10 05:57:00,
2013-05-10 02:12:00,47.8,47.0,29.91,NE,50,0.0,0.0,96,0.00,,,0.00,weatherlink.com 1.10,2013-05-10 06:12:00,
2013-05-10 02:27:00,47.6,47.0,29.91,NE,50,0.0,0.0,97,0.00,,,0.00,weatherlink.com 1.10,2013-05-10 06:27:00,
2013-05-10 02:42:00,47.0,46.0,29.92,NE,50,0.0,0.0,96,0.00,,,0.00,weatherlink.com 1.10,2013-05-10 06:42:00,
2013-05-10 02:57:00,46.7,46.0,29.93,NE,42,0.0,0.0,96,0.00,,,0.00,weatherlink.com 1.10,2013-05-10 06:57:00,
2013-05-10 03:12:00,46.4,46.0,29.93,NE,49,0.0,3.0,97,0.00,,,0.00,weatherlink.com 1.10,2013-05-10 07:12:00,
2013-05-10 03:27:00,45.9,45.0,29.93,NNE,17,1.0,3.0,97,0.00,,,0.00,weatherlink.com 1.10,2013-05-10 07:27:00,
2013-05-10 03:42:00,45.4,44.0,29.93,NNE,17,1.0,2.0,96,0.00,,,0.00,weatherlink.com 1.10,2013-05-10 07:42:00,
2013-05-10 03:57:00,45.2,44.0,29.93,NNE,17,0.0,0.0,97,0.00,,,0.00,weatherlink.com 1.10,2013-05-10 07:57:00,
2013-05-10 04:12:00,45.2,44.0,29.93,NNE,17,1.0,2.0,97,0.00,,,0.00,weatherlink.com 1.10,2013-05-10 08:12:00,
2013-05-10 04:27:00,45.0,44.0,29.93,NNE,17,0.0,2.0,97,0.00,,,0.00,weatherlink.com 1.10,2013-05-10 08:27:00,
2013-05-10 04:43:00,45.1,44.0,29.93,NE,35,1.0,2.0,97,0.00,,,0.00,weatherlink.com 1.10,2013-05-10 08:43:00,
2013-05-10 04:58:00,45.2,44.0,29.93,NE,35,0.0,1.0,97,0.00,,,0.00,weatherlink.com 1.10,2013-05-10 08:58:00,
2013-05-10 05:13:00,45.4,45.0,29.93,ENE,65,0.0,1.0,97,0.00,,,0.00,weatherlink.com 1.10,2013-05-10 09:13:00,
2013-05-10 05:28:00,45.1,44.0,29.94,ENE,65,0.0,1.0,97,0.00,,,0.00,weatherlink.com 1.10,2013-05-10 09:28:00,
2013-05-10 05:43:00,45.1,44.0,29.94,ENE,65,0.0,0.0,97,0.00,,,0.00,weatherlink.com 1.10,2013-05-10 09:43:00,
2013-05-10 05:58:00,44.8,44.0,29.95,ENE,65,0.0,2.0,97,0.00,,,0.00,weatherlink.com 1.10,2013-05-10 09:58:00,
2013-05-10 06:13:00,44.6,44.0,29.95,ENE,65,1.0,2.0,97,0.00,,,0.00,weatherlink.com 1.10,2013-05-10 10:13:00,
2013-05-10 06:28:00,44.4,44.0,29.96,ENE,65,0.0,2.0,97,0.00,,,0.00,weatherlink.com 1.10,2013-05-10 10:28:00,
2013-05-10 06:43:00,44.3,44.0,29.96,ENE,65,0.0,2.0,97,0.00,,,0.00,weatherlink.com 1.10,2013-05-10 10:43:00,
2013-05-10 06:58:00,44.7,44.0,29.96,ENE,65,0.0,2.0,97,0.00,,,0.00,weatherlink.com 1.10,2013-05-10 10:58:00,
2013-05-10 07:13:00,45.1,44.0,29.96,ENE,65,0.0,2.0,97,0.00,,,0.00,weatherlink.com 1.10,2013-05-10 11:13:00,
2013-05-10 07:28:00,45.7,45.0,29.96,ENE,65,0.0,2.0,98,0.00,,,0.00,weatherlink.com 1.10,2013-05-10 11:28:00,
2013-05-10 07:43:00,46.1,46.0,29.96,ENE,65,0.0,0.0,98,0.00,,,0.00,weatherlink.com 1.10,2013-05-10 11:43:00,
2013-05-10 07:58:00,47.0,47.0,29.96,SSE,150,0.0,0.0,98,0.00,,,0.00,weatherlink.com 1.10,2013-05-10 11:58:00,
2013-05-10 08:13:00,48.6,48.0,29.96,SE,134,0.0,0.0,97,0.00,,,0.00,weatherlink.com 1.10,2013-05-10 12:13:00,
2013-05-10 08:28:00,51.2,51.0,29.96,SE,134,0.0,0.0,98,0.00,,,0.00,weatherlink.com 1.10,2013-05-10 12:28:00,
2013-05-10 08:43:00,53.4,52.0,29.96,SSE,150,0.0,0.0,93,0.00,,,0.00,weatherlink.com 1.10,2013-05-10 12:43:00,
2013-05-10 08:58:00,55.9,53.0,29.96,South,177,0.0,0.0,91,0.00,,,0.00,weatherlink.com 1.10,2013-05-10 12:58:00,
2013-05-10 09:13:00,59.5,54.0,29.95,NW,316,0.0,0.0,82,0.00,,,0.00,weatherlink.com 1.10,2013-05-10 13:13:00,
2013-05-10 09:28:00,62.9,53.0,29.95,NNW,328,3.0,5.0,69,0.00,,,0.00,weatherlink.com 1.10,2013-05-10 13:28:00,
2013-05-10 09:43:00,64.3,50.0,29.95,West,269,3.0,7.0,60,0.00,,,0.00,weatherlink.com 1.10,2013-05-10 13:43:00,
2013-05-10 09:58:00,65.4,50.0,29.95,NNW,330,5.0,7.0,57,0.00,,,0.00,weatherlink.com 1.10,2013-05-10 13:58:00,
2013-05-10 10:13:00,66.9,49.0,29.94,WNW,288,2.0,6.0,52,0.00,,,0.00,weatherlink.com 1.10,2013-05-10 14:13:00,
2013-05-10 10:28:00,67.4,48.0,29.94,NNE,27,2.0,5.0,50,0.00,,,0.00,weatherlink.com 1.10,2013-05-10 14:28:00,
2013-05-10 10:43:00,69.0,49.0,29.94,WNW,288,0.0,5.0,49,0.00,,,0.00,weatherlink.com 1.10,2013-05-10 14:43:00,
2013-05-10 10:58:00,69.4,48.0,29.94,SSW,194,2.0,3.0,47,0.00,,,0.00,weatherlink.com 1.10,2013-05-10 14:58:00,
2013-05-10 11:14:00,69.3,48.0,29.93,South,189,1.0,3.0,47,0.00,,,0.00,weatherlink.com 1.10,2013-05-10 15:14:00,
2013-05-10 11:29:00,71.0,50.0,29.93,NE,34,1.0,3.0,47,0.00,,,0.00,weatherlink.com 1.10,2013-05-10 15:29:00,
2013-05-10 11:44:00,71.2,49.0,29.92,North,5,5.0,5.0,46,0.00,,,0.00,weatherlink.com 1.10,2013-05-10 15:44:00,
2013-05-10 11:59:00,72.4,49.0,29.91,West,259,1.0,6.0,43,0.00,,,0.00,weatherlink.com 1.10,2013-05-10 15:59:00,
2013-05-10 12:14:00,73.2,50.0,29.91,SW,219,2.0,5.0,44,0.00,,,0.00,weatherlink.com 1.10,2013-05-10 16:14:00,
2013-05-10 12:29:00,74.2,49.0,29.91,NW,319,2.0,5.0,41,0.00,,,0.00,weatherlink.com 1.10,2013-05-10 16:29:00,
2013-05-10 12:44:00,74.4,49.0,29.91,SSE,153,0.0,4.0,41,0.00,,,0.00,weatherlink.com 1.10,2013-05-10 16:44:00,
2013-05-10 12:59:00,73.6,49.0,29.91,SE,134,0.0,6.0,42,0.00,,,0.00,weatherlink.com 1.10,2013-05-10 16:59:00,
2013-05-10 13:14:00,74.5,52.0,29.90,SSW,203,1.0,4.0,45,0.00,,,0.00,weatherlink.com 1.10,2013-05-10 17:14:00,
2013-05-10 13:29:00,73.7,50.0,29.90,SW,214,3.0,6.0,43,0.00,,,0.00,weatherlink.com 1.10,2013-05-10 17:29:00,
2013-05-10 13:44:00,75.0,50.0,29.90,South,177,0.0,3.0,41,0.00,,,0.00,weatherlink.com 1.10,2013-05-10 17:44:00,
2013-05-10 13:59:00,75.3,47.0,29.89,ESE,121,2.0,4.0,37,0.00,,,0.00,weatherlink.com 1.10,2013-05-10 17:59:00,
2013-05-10 14:14:00,75.5,47.0,29.89,WSW,250,5.0,8.0,36,0.00,,,0.00,weatherlink.com 1.10,2013-05-10 18:14:00,
2013-05-10 14:29:00,74.8,46.0,29.89,NNW,342,1.0,5.0,36,0.00,,,0.00,weatherlink.com 1.10,2013-05-10 18:29:00,
2013-05-10 14:44:00,75.0,50.0,29.89,SW,223,0.0,3.0,41,0.00,,,0.00,weatherlink.com 1.10,2013-05-10 18:44:00,
2013-05-10 14:59:00,75.5,49.0,29.89,SSW,192,2.0,3.0,40,0.00,,,0.00,weatherlink.com 1.10,2013-05-10 18:59:00,
2013-05-10 15:14:00,74.8,49.0,29.88,SW,221,5.0,7.0,40,0.00,,,0.00,weatherlink.com 1.10,2013-05-10 19:14:00,
2013-05-10 15:29:00,75.6,48.0,29.88,West,273,1.0,4.0,38,0.00,,,0.00,weatherlink.com 1.10,2013-05-10 19:29:00,
2013-05-10 15:44:00,74.4,50.0,29.88,SW,223,4.0,11.0,43,0.00,,,0.00,weatherlink.com 1.10,2013-05-10 19:44:00,
2013-05-10 15:59:00,72.9,51.0,29.87,SSW,208,2.0,11.0,46,0.00,,,0.00,weatherlink.com 1.10,2013-05-10 19:59:00,
2013-05-10 16:14:00,72.4,51.0,29.88,SSW,192,4.0,7.0,47,0.00,,,0.00,weatherlink.com 1.10,2013-05-10 20:14:00,
2013-05-10 16:29:00,71.9,51.0,29.87,WSW,242,5.0,8.0,48,0.00,,,0.00,weatherlink.com 1.10,2013-05-10 20:29:00,
2013-05-10 16:44:00,71.5,52.0,29.87,SSW,202,3.0,8.0,50,0.00,,,0.00,weatherlink.com 1.10,2013-05-10 20:44:00,
2013-05-10 16:59:00,71.3,52.0,29.87,South,183,1.0,5.0,50,0.00,,,0.00,weatherlink.com 1.10,2013-05-10 20:59:00,
2013-05-10 17:14:00,71.1,52.0,29.86,SSE,160,1.0,4.0,51,0.00,,,0.00,weatherlink.com 1.10,2013-05-10 21:14:00,
2013-05-10 17:29:00,70.6,52.0,29.87,SW,227,0.0,4.0,52,0.00,,,0.00,weatherlink.com 1.10,2013-05-10 21:29:00,
2013-05-10 17:44:00,70.1,53.0,29.88,West,263,0.0,3.0,55,0.00,,,0.00,weatherlink.com 1.10,2013-05-10 21:44:00,
2013-05-10 17:59:00,69.5,54.0,29.87,West,263,0.0,1.0,58,0.00,,,0.00,weatherlink.com 1.10,2013-05-10 21:59:00,
2013-05-10 18:14:00,68.3,56.0,29.86,South,171,1.0,3.0,64,0.00,,,0.00,weatherlink.com 1.10,2013-05-10 22:14:00,
2013-05-10 18:29:00,67.3,56.0,29.86,SE,129,1.0,2.0,67,0.00,,,0.00,weatherlink.com 1.10,2013-05-10 22:29:00,
2013-05-10 18:44:00,66.8,57.0,29.86,SE,129,0.0,1.0,70,0.00,,,0.00,weatherlink.com 1.10,2013-05-10 22:44:00,
2013-05-10 18:59:00,66.7,56.0,29.86,SE,129,0.0,2.0,69,0.00,,,0.00,weatherlink.com 1.10,2013-05-10 22:59:00,
2013-05-10 19:14:00,66.1,57.0,29.85,SE,132,0.0,2.0,72,0.00,,,0.00,weatherlink.com 1.10,2013-05-10 23:14:00,
2013-05-10 19:29:00,65.3,56.0,29.86,SE,131,1.0,4.0,71,0.00,,,0.00,weatherlink.com 1.10,2013-05-10 23:29:00,
2013-05-10 19:44:00,65.8,54.0,29.85,SE,132,0.0,3.0,67,0.00,,,0.00,weatherlink.com 1.10,2013-05-10 23:44:00,
2013-05-10 19:59:00,65.4,54.0,29.85,South,171,0.0,2.0,67,0.00,,,0.00,weatherlink.com 1.10,2013-05-10 23:59:00,
2013-05-10 20:14:00,65.1,52.0,29.85,South,179,3.0,10.0,63,0.00,,,0.00,weatherlink.com 1.10,2013-05-11 00:14:00,
2013-05-10 20:29:00,65.6,53.0,29.84,SSE,161,2.0,5.0,63,0.00,,,0.00,weatherlink.com 1.10,2013-05-11 00:29:00,
2013-05-10 20:45:00,65.3,52.0,29.84,SE,140,0.0,8.0,63,0.00,,,0.00,weatherlink.com 1.10,2013-05-11 00:45:00,
2013-05-10 21:00:00,64.7,53.0,29.85,ENE,74,0.0,3.0,66,0.00,,,0.00,weatherlink.com 1.10,2013-05-11 01:00:00,
2013-05-10 21:15:00,64.3,53.0,29.84,SE,144,0.0,7.0,67,0.00,,,0.00,weatherlink.com 1.10,2013-05-11 01:15:00,
2013-05-10 21:30:00,64.6,53.0,29.84,SSW,213,2.0,6.0,66,0.00,,,0.00,weatherlink.com 1.10,2013-05-11 01:30:00,
2013-05-10 21:45:00,64.9,53.0,29.85,SSE,159,1.0,5.0,66,0.00,,,0.00,weatherlink.com 1.10,2013-05-11 01:45:00,
2013-05-10 22:00:00,65.1,53.0,29.84,SSE,167,3.0,7.0,65,0.00,,,0.00,weatherlink.com 1.10,2013-05-11 02:00:00,
2013-05-10 22:15:00,65.0,53.0,29.84,SSW,202,0.0,5.0,65,0.00,,,0.00,weatherlink.com 1.10,2013-05-11 02:15:00,
2013-05-10 22:30:00,65.4,53.0,29.84,SSW,202,3.0,9.0,65,0.00,,,0.00,weatherlink.com 1.10,2013-05-11 02:30:00,
2013-05-10 22:45:00,65.7,53.0,29.83,SE,134,2.0,8.0,63,0.00,,,0.00,weatherlink.com 1.10,2013-05-11 02:45:00,
2013-05-10 23:00:00,66.2,53.0,29.82,SSE,147,2.0,8.0,63,0.00,,,0.00,weatherlink.com 1.10,2013-05-11 03:00:00,
2013-05-10 23:15:00,66.3,53.0,29.82,WNW,284,4.0,9.0,63,0.00,,,0.00,weatherlink.com 1.10,2013-05-11 03:15:00,
2013-05-10 23:30:00,66.5,53.0,29.81,South,169,8.0,9.0,62,0.00,,,0.00,weatherlink.com 1.10,2013-05-11 03:30:00,
2013-05-10 23:45:00,66.8,53.0,29.81,East,98,2.0,6.0,62,0.00,,,0.00,weatherlink.com 1.10,2013-05-11 03:45:00,